Weather History for KBIX - February, 2012

Change the Weather History Date:

Monday, February 6, 2012

  Actual Average Record
Temperature  
Mean Temperature 56 °F -  
Max Temperature 64 °F 59 °F 75 °F (1957)
Min Temperature 49 °F 43 °F 25 °F (1984)
Degree Days  
Heating Degree Days 8    
Growing Degree Days 6 (Base 50)    
Moisture  
Dew Point 45 °F    
Average Humidity 70    
Maximum Humidity 82    
Minimum Humidity 51    
Precipitation  
Precipitation 0.00 in - - ()
Sea Level Pressure  
Sea Level Pressure 30.18 in    
Wind  
Wind Speed 10 mph (NNE)    
Max Wind Speed 14 mph    
Max Gust Speed -    
Visibility 10 miles    
Events Rain    
Averages and records for this station are not official NWS values.
T = Trace of Precipitation, MM = Missing Value Source: NWS Daily Summary

Daily Weather History Graph

Daily Weather History Graph

Search for Another Location

Airport or City:

Trip Planner

Search our weather history database for the weather conditions in past years. The results will help you decide how hot, cold, wet, or windy it might be!

Date:

Astronomy

Feb. 06, 2012 Rise Set
Actual Time 6:43 AM CST 5:36 PM CST
Civil Twilight 6:18 AM CST 6:01 PM CST
Nautical Twilight 5:50 AM CST 6:29 PM CST
Astronomical Twilight 5:21 AM CST 6:57 PM CST
Moon 4:40 PM CST 5:33 AM CST
Length of Visible Light 11h 42m
Length of Day
10h 52m
Waxing Gibbous, 98% of the Moon is Illuminated
Feb 6
Waxing Gibbous
Feb 7
Full
Feb 14
Last Quarter
Feb 21
New
Feb 29
First Quarter

Hourly Weather History & Observations

Time (CST) Temp. Dew Point Humidity Pressure Visibility Wind Dir Wind Speed Gust Speed Precip Events Conditions
12:55 AM 52.7 °F 45.1 °F 75% 30.19 in 10.0 mi North 12.7 mph - N/A   Mostly Cloudy
1:55 AM 52.0 °F 43.9 °F 74% 30.19 in 10.0 mi NNE 11.5 mph - N/A   Mostly Cloudy
2:55 AM 51.1 °F 43.2 °F 74% 30.17 in 10.0 mi NNE 13.8 mph - N/A   Mostly Cloudy
3:55 AM 50.5 °F 43.2 °F 76% 30.18 in 10.0 mi NNE 12.7 mph - N/A   Mostly Cloudy
4:55 AM 49.8 °F 42.8 °F 77% 30.17 in 10.0 mi NNE 12.7 mph - N/A   Scattered Clouds
5:55 AM 49.6 °F 42.6 °F 77% 30.18 in 10.0 mi NNE 9.2 mph - N/A   Mostly Cloudy
6:55 AM 49.3 °F 42.4 °F 77% 30.20 in 10.0 mi North 10.4 mph - N/A   Overcast
7:55 AM 49.5 °F 42.6 °F 77% 30.21 in 10.0 mi North 8.1 mph - N/A   Mostly Cloudy
9:24 AM 50.0 °F 42.8 °F 76% 30.23 in 10.0 mi NNE 9.2 mph - N/A Rain Light Rain
9:28 AM 51.8 °F 44.6 °F 76% 30.23 in 10.0 mi North 9.2 mph - N/A Rain Light Rain
9:50 AM 50.0 °F 44.6 °F 82% 30.24 in 10.0 mi NNE 8.1 mph - N/A   Scattered Clouds
9:55 AM 50.9 °F 44.4 °F 78% 30.24 in 10.0 mi North 9.2 mph - 0.00 in   Mostly Cloudy
10:03 AM 51.8 °F 44.6 °F 76% 30.24 in 10.0 mi NNE 9.2 mph - N/A Rain Light Rain
10:24 AM 51.8 °F 44.6 °F 76% 30.23 in 10.0 mi NNE 9.2 mph - N/A   Partly Cloudy
10:55 AM 53.8 °F 44.4 °F 71% 30.22 in 10.0 mi NNE 6.9 mph - 0.00 in   Scattered Clouds
11:55 AM 56.7 °F 45.5 °F 66% 30.19 in 10.0 mi NNE 9.2 mph - N/A   Scattered Clouds
12:55 PM 60.1 °F 45.9 °F 59% 30.17 in 10.0 mi NNE 8.1 mph - N/A   Mostly Cloudy
1:55 PM 63.0 °F 44.8 °F 51% 30.15 in 10.0 mi NNE 6.9 mph - N/A   Clear
2:55 PM 64.0 °F 45.7 °F 51% 30.14 in 10.0 mi NE 4.6 mph - N/A   Clear
3:55 PM 63.7 °F 45.3 °F 51% 30.14 in 10.0 mi NNE 5.8 mph - N/A   Partly Cloudy
4:55 PM 63.5 °F 46.6 °F 54% 30.14 in 10.0 mi NNE 3.5 mph - N/A   Clear
5:55 PM 61.0 °F 47.5 °F 61% 30.14 in 10.0 mi North 4.6 mph - N/A   Clear
6:55 PM 59.0 °F 46.6 °F 63% 30.15 in 10.0 mi North 6.9 mph - N/A   Clear
7:55 PM 56.8 °F 46.4 °F 68% 30.15 in 10.0 mi North 8.1 mph - N/A   Clear
8:55 PM 55.2 °F 45.5 °F 70% 30.15 in 10.0 mi North 8.1 mph - N/A   Clear
9:55 PM 53.8 °F 45.0 °F 72% 30.17 in 10.0 mi North 8.1 mph - N/A   Clear
10:55 PM 52.5 °F 44.4 °F 74% 30.18 in 10.0 mi North 4.6 mph - N/A   Clear
11:55 PM 52.0 °F 44.4 °F 75% 30.17 in 10.0 mi NNE 8.1 mph - N/A   Scattered Clouds